This is the latest recevied weather packets stored in our database for station/object KJ5JYX. If no packets are shown the sender has not sent any weather packets the latest 10 day(s).
| Time | Temp. | Humidity | Pressure | Rain* | Wind** | Luminosity | Snow |
|---|---|---|---|---|---|---|---|
| 1777958005 | 21.67° C | 85% | 1009.7 hPa | 0 mm | - | 0 W/m² | - |
| 1777957703 | 22.22° C | 85% | 1009.7 hPa | 0 mm | - | 0 W/m² | - |
| 1777957402 | 22.22° C | 84% | 1009.7 hPa | 0 mm | - | 0 W/m² | - |
| 1777957097 | 22.22° C | 83% | 1009.7 hPa | 0 mm | - | 0 W/m² | - |
| 1777956795 | 22.22° C | 83% | 1009.9 hPa | 0 mm | - | 0 W/m² | - |
| 1777956492 | 22.22° C | 82% | 1009.8 hPa | 0 mm | - | 0 W/m² | - |
| 1777956189 | 22.22° C | 82% | 1009.9 hPa | 0 mm | - | 0 W/m² | - |
| 1777955885 | 22.22° C | 83% | 1009.8 hPa | 0 mm | - | 0 W/m² | - |
| 1777955582 | 22.22° C | 82% | 1009.8 hPa | 0 mm | - | 0 W/m² | - |
| 1777955278 | 22.22° C | 82% | 1010.1 hPa | 0 mm | - | 0 W/m² | - |
| 1777954975 | 22.78° C | 81% | 1010 hPa | 0 mm | - | 0 W/m² | - |
| 1777954672 | 22.78° C | 81% | 1009.8 hPa | 0 mm | - | 0 W/m² | - |
| 1777954369 | 22.22° C | 81% | 1009.5 hPa | 0 mm | - | 0 W/m² | - |
| 1777954066 | 22.22° C | 81% | 1009.5 hPa | 0 mm | - | 0 W/m² | - |
| 1777953764 | 22.22° C | 81% | 1009.6 hPa | 0 mm | - | 0 W/m² | - |
| 1777943760 | 25° C | 70% | 1009.2 hPa | 0 mm | - | 1 W/m² | - |
| 1777943458 | 25° C | 70% | 1009.3 hPa | 0 mm | - | 2 W/m² | - |
| 1777943153 | 25° C | 69% | 1009.4 hPa | 0 mm | - | 4 W/m² | - |
| 1777942850 | 25.56° C | 68% | 1009.3 hPa | 0 mm | - | 6 W/m² | - |
| 1777942546 | 25.56° C | 67% | 1009.5 hPa | 0 mm | - | 9 W/m² | - |
| 1777941941 | 25.56° C | 66% | 1009.5 hPa | 0 mm | - | 13 W/m² | - |
| 1777941335 | 26.11° C | 66% | 1009.4 hPa | 0 mm | - | 18 W/m² | - |
| 1777940732 | 26.11° C | 65% | 1009.3 hPa | 0 mm | - | 26 W/m² | - |
| 1777940432 | 26.11° C | 66% | 1009.2 hPa | 0 mm | - | 26 W/m² | - |
| 1777940128 | 26.11° C | 64% | 1009.4 hPa | 0 mm | - | 29 W/m² | - |
* Rain latest hour (hover to see other rain measurements)
** Current wind speed in m/s (hover to see current wind gust speed)